Rock Creek, MN (55067)

5:26 AM CST on February 22, 2017 (GMT -0600)
Rush City Regional | | Change Station
Active Advisory: Winter Storm Watch

Elev 925 ft 45.70 °N, 92.95 °W | Updated 11 minutes ago

Fog
Fog
34 °F
Feels Like 34 °F
N
0
Wind Variable Wind from North

Today
High -- | Low -- °F
--% Chance of Precip.
Yesterday
High -- | Low -- °F
Precip. -- in
Pressure 29.61 in
Visibility 0.5 miles
Clouds Overcast 100 ft
Dew Point 34 °F
Humidity 100%
Rainfall 0.00 in
Snow Depth Not available.
7:02 AM 5:49 PM
Waning Crescent, 18% visible
METAR KROS 221115Z AUTO 00000KT 1/2SM FG OVC001 01/01 A2961 RMK AO2
Pressure 29.61 in
Visibility 0.5 miles
Clouds Overcast 100 ft
Dew Point 34 °F
Humidity 100%
Rainfall 0.00 in
Snow Depth Not available.
7:02 AM 5:49 PM
Waning Crescent, 18% visible
METAR KROS 221115Z AUTO 00000KT 1/2SM FG OVC001 01/01 A2961 RMK AO2

Get Your Daily Forecast Email!

Thanks for signing up!

Be on the lookout for a verification email in your inbox.

You'll start receiving the daily forecast at 8 AM.

×

10-Day Weather Forecast

Almanac

Astronomy

Feb. 22, 2017 Rise Set
Actual Time
Civil Twilight
Nautical Twilight
Astronomical Twilight
Moon
Length of Visible Light
Length of Day
Tomorrow will be .
, % of the Moon is Illuminated

Today's Extremes

State Highs State Lows

Community

WunderPhotos

Upload Photos

1,962,540 photos uploaded!

WunderBlog® & News

Nearby

Air Quality

  Air Quality AQ Index Pollutant
Not available.

Snow Depth

Station Depth Elevation

Earthquake Activity

City Distance Mag. Time & Date
Minimum magnitude displayed is 2.5.

Coastal Water Temperatures

Place Temperature

Stations

Nearby Weather Stations

Station Location Temp. Windchill Dew Point Humidity Wind Precip. Elev Updated Type
                   

Watches & Warnings

Winter Storm Watch
Issued: 3:49 AM CST Feb. 22, 2017 – National Weather Service

... Winter Storm Watch in effect from Thursday evening through
late Friday night...

The National Weather Service in Duluth has issued a Winter Storm
Watch... which is in effect from Thursday evening through late
Friday night.

* Locations... Pine County east through Price County. This includes
Hinckley, Siren, Hayward, Park falls and Phillips.

* Snow accumulations... greater than 6 inches.

* Winds... northeast 10 to 20 mph with gusts up to 35 mph.

* Visibilities... less than one half mile in the heavier snow.

* Impacts... the snow will affect travel.

Precautionary/preparedness actions...

A Winter Storm Watch means there is a potential for significant
snow that may impact travel. Continue to monitor the latest
forecasts for updates.